Location: BGSU Observatory
(41.3799°N, 83.6397°W)
Time: 01:00:57
(UTC-04:00)

Amateur Radio Satellites - All Passes

Search period start: 23 May 2017 00:30
Search period end: 24 May 2017 00:30
Location: BGSU Observatory, 41.3799°N, 83.6397°W

Satellite Date Start Highest point End Downlink Frequencies (MHz)
Time Altitude Azimuth
SPROUT 23 May 00:35:11 00:39:03 36° 71° (ENE) 00:42:57 437.525
50 SAT 23 May 00:37:32 00:39:50 17° 68° (ENE) 00:42:09 437.505
FO-29 23 May 00:38:56 00:44:44 44° 290° (WNW) 00:51:13 435.910
NANOSAT C BR1 23 May 00:40:38 00:43:55 21° 94° (E) 00:47:11 145.865
POLYITAN 1 23 May 00:40:49 00:44:17 24° 95° (E) 00:47:46 437.675
SO-50 23 May 00:47:35 00:52:09 66° 305° (NW) 00:56:41 436.795
QB50P2 23 May 00:48:57 00:52:47 32° 97° (E) 00:56:36 145.880/145.840
DUCHIFAT 1 23 May 00:53:32 00:57:07 26° 96° (E) 01:00:42 145.980
DX 1 23 May 00:57:59 01:01:32 25° 67° (ENE) 01:05:04 434.975-435.025
UKube-1 23 May 00:59:57 01:02:53 18° 65° (ENE) 01:05:50 .
TIGRISAT 23 May 01:12:53 01:15:11 14° 297° (WNW) 01:17:28 435.000
ISS 23 May 01:24:45 01:26:54 16° 349° (NNW) 01:29:04 437.550
EO-79 23 May 01:27:23 01:31:40 81° 104° (ESE) 01:35:54 145.935-145.965
BUGSAT 1 23 May 01:29:36 01:32:41 20° 95° (E) 01:35:46 437.445
Tancredo 1 23 May 01:35:46 01:37:15 13° 355° (N) 01:38:43 437.200
VELOX 1 23 May 01:43:52 01:47:59 38° 262° (W) 01:52:07 145.980
Oscar 19 23 May 01:46:10 01:48:13 12° 89° (E) 01:50:14 437.125/150
AIST 2D 23 May 02:01:27 02:03:37 15° 293° (WNW) 02:05:46 435.315
RS-15 23 May 02:07:11 02:16:09 25° 100° (E) 02:25:15 29.354- 29.394
YUBILEINY 23 May 02:08:32 02:16:53 54° 90° (E) 02:25:18 435.215
50 SAT 23 May 02:09:31 02:12:31 27° 263° (W) 02:15:30 437.505
SPROUT 23 May 02:12:03 02:15:04 19° 267° (W) 02:18:05 437.525
NANOSAT C BR1 23 May 02:15:53 02:19:40 32° 290° (WNW) 02:23:26 145.865
POLYITAN 1 23 May 02:16:21 02:20:03 29° 291° (WNW) 02:23:44 437.675
QB50P2 23 May 02:25:04 02:28:23 22° 293° (WNW) 02:31:41 145.880/145.840
Gurwin Techsat 1B 23 May 02:27:26 02:31:14 19° 92° (E) 02:34:59 435.225
DUCHIFAT 1 23 May 02:29:11 02:32:42 26° 292° (WNW) 02:36:13 145.980
SO-50 23 May 02:31:53 02:33:29 12° 325° (NW) 02:35:04 436.795
DX 1 23 May 02:33:45 02:37:35 30° 263° (W) 02:41:25 434.975-435.025
UKube-1 23 May 02:34:31 02:38:36 41° 261° (W) 02:42:42 .
ISS 23 May 03:02:21 03:04:24 15° 9° (N) 03:06:26 437.550
BUGSAT 1 23 May 03:04:24 03:08:05 32° 290° (WNW) 03:11:46 437.445
ITUPSAT 1 23 May 03:06:00 03:10:18 35° 69° (ENE) 03:14:38 437.325
Tancredo 1 23 May 03:11:52 03:13:58 17° 16° (NNE) 03:16:03 437.200
Oscar 19 23 May 03:22:55 03:28:06 78° 285° (WNW) 03:33:13 437.125/150
BEESAT 23 May 03:41:54 03:46:39 83° 74° (ENE) 03:51:26 436.000
MOZHAYETS 4 23 May 04:01:25 04:05:58 69° 75° (ENE) 04:10:35
Gurwin Techsat 1B 23 May 04:06:18 04:11:28 53° 289° (WNW) 04:16:37 435.225
YUBILEINY 23 May 04:06:20 04:14:00 34° 290° (WNW) 04:21:47 435.215
RS-15 23 May 04:14:52 04:27:01 89° 302° (WNW) 04:39:29 29.354- 29.394
ITAMSAT 1 23 May 04:15:41 04:20:07 28° 96° (E) 04:24:32 435.822/435.867
AO-7 23 May 04:25:17 04:32:50 36° 98° (E) 04:40:20 .
STARS 23 May 04:35:14 04:36:08 11° 60° (ENE) 04:37:02 437.465
CUBESAT XI-V 23 May 04:36:46 04:40:49 30° 68° (ENE) 04:44:54 437.345
ISS 23 May 04:38:26 04:41:34 40° 29° (NNE) 04:44:40 437.550
ITUPSAT 1 23 May 04:44:17 04:48:10 25° 265° (W) 04:52:04 437.325
Tancredo 1 23 May 04:47:07 04:50:11 70° 33° (NNE) 04:53:14 437.200
PCSat 23 May 05:04:16 05:08:46 26° 48° (NE) 05:13:16 145.827
Oscar 19 23 May 05:05:38 05:06:31 10° 303° (WNW) 05:07:24 437.125/150
KKS-1 23 May 05:24:50 05:29:16 83° 78° (ENE) 05:33:43 437.445
O/OREOS (USA 219) 23 May 05:40:00 05:44:35 76° 111° (ESE) 05:49:11 437.305
MOZHAYETS 4 23 May 05:42:01 05:43:36 12° 271° (W) 05:45:11
ITAMSAT 1 23 May 05:54:52 05:59:37 37° 292° (WNW) 06:04:21 435.822/435.867
STARS 23 May 06:07:28 06:11:49 79° 258° (WSW) 06:16:12 437.465
CUBESAT XI-V 23 May 06:14:04 06:18:07 29° 265° (W) 06:22:13 437.345
ISS 23 May 06:15:12 06:17:55 24° 226° (SW) 06:20:38 437.550
AO-7 23 May 06:17:46 06:25:46 52° 296° (WNW) 06:33:46 .
Tancredo 1 23 May 06:24:20 06:25:34 12° 230° (SW) 06:26:47 437.200
AO-85 23 May 06:25:53 06:30:04 66° 120° (ESE) 06:34:02 145.980
DOVE 4 23 May 06:28:21 06:31:11 18° 93° (E) 06:34:03 437.250
RS-15 23 May 06:30:33 06:41:24 35° 328° (NNW) 06:52:22 29.354- 29.394
LilacSat-2 23 May 06:42:37 06:44:43 14° 92° (E) 06:46:47 437.200
BEESAT 3 23 May 06:44:22 06:47:48 29° 114° (ESE) 06:51:18 437.485
PCSat 23 May 06:47:11 06:52:27 51° 246° (WSW) 06:57:40 145.827
CUTE-I 23 May 07:20:37 07:25:28 35° 97° (E) 07:30:19 437.470
XW-2D 23 May 07:20:40 07:24:19 38° 98° (E) 07:27:54 145.860 - 145.880
O/OREOS (USA 219) 23 May 07:22:19 07:24:33 13° 309° (NW) 07:26:47 437.305
XW-2B 23 May 07:28:25 07:32:09 46° 99° (E) 07:35:51 145.730 - 145.750
STRAND 1 23 May 07:35:31 07:40:17 42° 70° (ENE) 07:45:06 437.568
SO-50 23 May 07:39:23 07:42:17 17° 40° (NE) 07:45:11 436.795
XW-2C 23 May 07:41:47 07:45:39 71° 101° (ESE) 07:49:29 145.795 - 145.815
XW-2F 23 May 07:43:54 07:47:46 72° 103° (ESE) 07:51:34 145.980 - 146.000
BEESAT 2 23 May 07:51:52 07:55:45 59° 119° (ESE) 07:59:44 435.950
NUDT-PHONESAT 23 May 07:55:31 07:59:19 82° 102° (ESE) 08:03:04 437.300
KAITUO 1B 23 May 07:58:22 08:02:12 89° 61° (ENE) 08:05:59 145.475/437.950
DOVE 4 23 May 08:05:14 08:09:01 36° 289° (WNW) 08:12:52 437.250
M-CUBED/EXP-1 PRIME 23 May 08:05:36 08:09:15 27° 65° (ENE) 08:12:42 437.505
AO-85 23 May 08:08:30 08:10:49 15° 318° (NW) 08:13:06 145.980
AO-7 23 May 08:13:42 08:16:38 12° 318° (NW) 08:19:34 .
LilacSat-2 23 May 08:15:30 08:19:11 41° 287° (WNW) 08:22:49 437.200
HO-68 23 May 08:16:38 08:23:00 33° 96° (E) 08:29:18 435.675
BEESAT 3 23 May 08:22:00 08:25:22 26° 312° (NW) 08:28:48 437.485
CUBEBUG 2 23 May 08:22:49 08:25:23 15° 91° (E) 08:28:00 437.445
CUTE 1.7 + AOD 2 23 May 08:25:31 08:29:18 30° 96° (E) 08:33:01 437.475
UWE-3 23 May 08:41:43 08:44:11 14° 91° (E) 08:46:40 435.000/436.395/437.385
RS-15 23 May 08:49:56 08:59:12 23° 3° (N) 09:08:20 29.354- 29.394
XW-2D 23 May 08:55:51 08:58:09 15° 294° (WNW) 09:00:27 145.860 - 145.880
AAUSAT CUBESAT 2 23 May 08:59:08 09:02:18 21° 94° (E) 09:05:25 437.432
CUTE-I 23 May 09:00:47 09:05:24 31° 294° (WNW) 09:10:02 437.470
XW-2B 23 May 09:04:04 09:05:55 13° 295° (WNW) 09:07:47 145.730 - 145.750
FO-29 23 May 09:11:40 09:12:49 11° 56° (NE) 09:13:58 435.910
PRISM 23 May 09:14:42 09:15:56 11° 62° (ENE) 09:17:09 437.425
STRAND 1 23 May 09:15:39 09:19:37 23° 266° (W) 09:23:37 437.568
SO-50 23 May 09:18:44 09:23:15 74° 240° (WSW) 09:27:46 436.795
SEEDS 23 May 09:22:08 09:26:23 85° 102° (ESE) 09:30:35 437.485
XW-2A 23 May 09:28:11 09:31:31 45° 286° (WNW) 09:34:48 145.665 - 145.685
UNISAT 6 23 May 09:29:53 09:31:42 13° 62° (ENE) 09:33:32 437.425
Oscar 11 23 May 09:30:13 09:33:15 18° 93° (E) 09:36:16 .
BEESAT 2 23 May 09:31:20 09:33:53 16° 318° (NW) 09:36:28 435.950
M-CUBED/EXP-1 PRIME 23 May 09:39:52 09:43:36 27° 258° (WSW) 09:47:09 437.505
AO-73 23 May 09:51:03 09:55:20 40° 98° (E) 09:59:37 145.935
CUBEBUG 2 23 May 09:57:51 10:02:16 55° 286° (WNW) 10:06:48 437.445
CUTE 1.7 + AOD 2 23 May 10:01:34 10:04:58 24° 292° (WNW) 10:08:22 437.475
ZACube-1 23 May 10:02:31 10:07:01 59° 101° (E) 10:11:30 437.345
HO-68 23 May 10:04:01 10:10:52 49° 294° (WNW) 10:17:42 435.675
UWE-3 23 May 10:16:29 10:20:56 57° 286° (WNW) 10:25:28 435.000/436.395/437.385
TIGRISAT 23 May 10:33:09 10:37:17 54° 73° (ENE) 10:41:30 435.000
AAUSAT CUBESAT 2 23 May 10:34:07 10:37:47 31° 290° (WNW) 10:41:25 437.432
NO-84 23 May 10:35:39 10:39:56 55° 134° (SE) 10:44:04 435.350 FM
PRISM 23 May 10:46:31 10:50:38 68° 257° (WSW) 10:54:47 437.425
FO-29 23 May 10:51:50 10:57:03 87° 77° (ENE) 11:02:19 435.910
EO-88 23 May 10:54:29 10:57:42 28° 96° (E) 11:00:54 145.990 - 145.960
AIST 2D 23 May 11:03:18 11:04:54 13° 66° (ENE) 11:06:32 435.315
UNISAT 6 23 May 11:03:39 11:07:52 62° 259° (W) 11:12:09 437.425
RS-15 23 May 11:05:06 11:16:30 40° 37° (NE) 11:27:23 29.354- 29.394
Oscar 11 23 May 11:05:27 11:09:32 39° 289° (WNW) 11:13:34 .
DELFI C3 23 May 11:27:39 11:31:36 75° 284° (WNW) 11:35:29 145.870
AO-73 23 May 11:27:56 11:31:17 21° 294° (WNW) 11:34:38 145.935
NANOSAT C BR1 23 May 11:33:21 11:36:00 17° 65° (ENE) 11:38:41 145.865
POLYITAN 1 23 May 11:33:53 11:36:48 19° 66° (ENE) 11:39:44 437.675
ZACube-1 23 May 11:40:17 11:42:48 15° 296° (WNW) 11:45:18 437.345
QB50P2 23 May 11:41:46 11:45:10 24° 68° (ENE) 11:48:34 145.880/145.840
DUCHIFAT 1 23 May 11:45:44 11:48:47 20° 66° (ENE) 11:51:51 145.980
LO-87 23 May 11:51:00 11:53:26 17° 94° (E) 11:55:51 145.935 - 145.965
TIGRISAT 23 May 12:12:26 12:14:20 13° 270° (W) 12:16:15 435.000
NO-84 23 May 12:13:59 12:17:45 28° 330° (NNW) 12:21:21 435.350 FM
YUBILEINY 23 May 12:18:53 12:26:05 27° 67° (ENE) 12:33:13 435.215
EO-79 23 May 12:19:28 12:23:34 58° 74° (ENE) 12:27:42 145.935-145.965
BUGSAT 1 23 May 12:20:16 12:22:30 15° 64° (ENE) 12:24:42 437.445
ESTCUBE 1 23 May 12:21:25 12:25:10 25° 95° (E) 12:28:53 437.505/2401.250
EO-88 23 May 12:28:35 12:31:11 18° 292° (WNW) 12:33:47 145.990 - 145.960
AIST 2D 23 May 12:34:28 12:37:45 38° 262° (W) 12:41:05 435.315
Oscar 19 23 May 13:02:16 13:05:59 20° 63° (ENE) 13:09:44 437.125/150
NANOSAT C BR1 23 May 13:07:24 13:11:22 42° 261° (W) 13:15:22 145.865
POLYITAN 1 23 May 13:08:25 13:12:18 37° 262° (W) 13:16:14 437.675
QB50P2 23 May 13:17:13 13:20:50 28° 264° (W) 13:24:28 145.880/145.840
RS-15 23 May 13:17:57 13:30:06 75° 243° (WSW) 13:41:36 29.354- 29.394
DUCHIFAT 1 23 May 13:20:26 13:24:14 34° 263° (W) 13:28:02 145.980
LO-87 23 May 13:23:51 13:26:53 27° 289° (WNW) 13:29:55 145.935 - 145.965
50 SAT 23 May 13:32:49 13:35:01 16° 94° (E) 13:37:11 437.505
VELOX 1 23 May 13:33:27 13:37:33 37° 98° (E) 13:41:37 145.980
AO-7 23 May 13:38:41 13:41:14 12° 42° (NE) 13:43:48 .
Gurwin Techsat 1B 23 May 13:48:17 13:52:56 32° 67° (ENE) 13:57:36 435.225
BUGSAT 1 23 May 13:53:37 13:57:28 45° 261° (W) 14:01:20 437.445
NO-84 23 May 13:54:40 13:56:26 12° 350° (N) 13:58:09 435.350 FM
SPROUT 23 May 13:55:57 14:00:13 71° 102° (ESE) 14:04:28 437.525
ESTCUBE 1 23 May 13:58:00 14:01:57 30° 291° (WNW) 14:05:53 437.505/2401.250
EO-79 23 May 13:58:17 13:59:41 11° 270° (W) 14:01:07 145.935-145.965
O/OREOS (USA 219) 23 May 14:11:56 14:14:48 16° 53° (NE) 14:17:39 437.305
YUBILEINY 23 May 14:14:51 14:23:37 69° 267° (W) 14:32:21 435.215
DX 1 23 May 14:21:09 14:25:17 43° 99° (E) 14:29:24 434.975-435.025
UKube-1 23 May 14:21:22 14:25:09 29° 97° (E) 14:28:55 .
Oscar 19 23 May 14:39:49 14:44:53 53° 260° (W) 14:50:00 437.125/150
AO-85 23 May 14:56:34 15:00:31 54° 55° (NE) 15:04:40 145.980
BEESAT 3 23 May 15:01:00 15:04:05 21° 45° (NE) 15:07:09 437.485
50 SAT 23 May 15:05:01 15:07:55 26° 290° (WNW) 15:10:47 437.505
VELOX 1 23 May 15:10:31 15:13:44 20° 294° (WNW) 15:16:57 145.980
AO-7 23 May 15:24:10 15:32:02 51° 63° (ENE) 15:39:58 .
Gurwin Techsat 1B 23 May 15:28:04 15:32:48 33° 264° (W) 15:37:34 435.225
ITAMSAT 1 23 May 15:33:33 15:38:24 43° 70° (ENE) 15:43:17 435.822/435.867
NO-84 23 May 15:33:35 15:35:28 13° 12° (NNE) 15:37:16 435.350 FM
RS-15 23 May 15:33:38 15:40:13 17° 265° (W) 15:46:40 29.354- 29.394
SPROUT 23 May 15:34:13 15:35:32 11° 298° (WNW) 15:36:49 437.525
BEESAT 23 May 15:42:40 15:46:14 21° 94° (E) 15:49:48 436.000
O/OREOS (USA 219) 23 May 15:50:09 15:54:35 56° 252° (WSW) 15:58:57 437.305
MOZHAYETS 4 23 May 15:57:31 16:00:24 16° 91° (E) 16:03:17
UKube-1 23 May 15:57:34 16:01:02 24° 293° (WNW) 16:04:30 .
DX 1 23 May 15:58:16 16:01:08 18° 296° (WNW) 16:03:59 434.975-435.025
BEESAT 2 23 May 16:09:29 16:13:16 36° 51° (NE) 16:17:01 435.950
YUBILEINY 23 May 16:15:42 16:18:37 12° 287° (WNW) 16:21:33 435.215
BEESAT 3 23 May 16:38:03 16:41:50 40° 244° (WSW) 16:45:34 437.485
AO-85 23 May 16:38:21 16:40:31 14° 249° (WSW) 16:42:44 145.980
ITUPSAT 1 23 May 16:43:23 16:48:13 83° 103° (ESE) 16:53:02 437.325
NO-84 23 May 17:10:30 17:13:59 37° 33° (NNE) 17:17:11 435.350 FM
ITAMSAT 1 23 May 17:13:59 17:18:01 23° 266° (W) 17:22:06 435.822/435.867
KKS-1 23 May 17:16:54 17:19:33 15° 92° (E) 17:22:11 437.445
AO-7 23 May 17:17:28 17:24:57 37° 262° (W) 17:32:31 .
BEESAT 23 May 17:19:39 17:24:10 42° 290° (WNW) 17:28:41 436.000
MOZHAYETS 4 23 May 17:33:19 17:37:51 51° 287° (WNW) 17:42:19
DOVE 4 23 May 17:33:43 17:37:11 21° 68° (ENE) 17:40:32 437.250
BEESAT 2 23 May 17:47:44 17:50:48 21° 248° (WSW) 17:53:50 435.950
STARS 23 May 17:57:32 18:00:34 18° 93° (E) 18:03:34 437.465
XW-2D 23 May 18:02:29 18:05:15 20° 68° (ENE) 18:08:04 145.860 - 145.880
CUBESAT XI-V 23 May 18:09:38 18:14:18 71° 101° (ESE) 18:18:54 437.345
XW-2B 23 May 18:10:01 18:13:03 23° 69° (ENE) 18:16:06 145.730 - 145.750
XW-2C 23 May 18:23:02 18:26:27 33° 71° (ENE) 18:29:55 145.795 - 145.815
ITUPSAT 1 23 May 18:23:33 18:25:21 12° 301° (WNW) 18:27:08 437.325
XW-2F 23 May 18:24:45 18:28:09 33° 72° (ENE) 18:31:36 145.980 - 146.000
NUDT-PHONESAT 23 May 18:34:45 18:38:08 34° 72° (ENE) 18:41:32 437.300
KAITUO 1B 23 May 18:38:11 18:41:42 39° 72° (ENE) 18:45:15 145.475/437.950
CUTE-I 23 May 18:42:22 18:47:33 57° 72° (ENE) 18:52:45 437.470
HO-68 23 May 18:46:07 18:51:46 26° 59° (ENE) 18:57:25 435.675
NO-84 23 May 18:48:30 18:51:21 23° 233° (SW) 18:54:00 435.350 FM
KKS-1 23 May 18:52:06 18:56:22 48° 288° (WNW) 19:00:37 437.445
LilacSat-2 23 May 18:56:43 19:00:31 87° 257° (WSW) 19:04:24 437.200
DOVE 4 23 May 19:10:15 19:14:40 38° 262° (W) 19:18:52 437.250
CUTE 1.7 + AOD 2 23 May 19:18:24 19:21:42 22° 67° (ENE) 19:25:01 437.475
CUBEBUG 2 23 May 19:22:34 19:23:55 11° 62° (ENE) 19:25:17 437.445
STARS 23 May 19:32:57 19:37:03 41° 289° (WNW) 19:41:10 437.465
XW-2D 23 May 19:35:57 19:39:15 28° 264° (W) 19:42:36 145.860 - 145.880
UWE-3 23 May 19:40:31 19:41:35 11° 61° (ENE) 19:42:39 435.000/436.395/437.385
XW-2B 23 May 19:44:02 19:47:09 24° 265° (W) 19:50:18 145.730 - 145.750
PCSat 23 May 19:47:02 19:50:54 20° 106° (ESE) 19:54:46 145.827
STRAND 1 23 May 19:47:20 19:50:01 14° 90° (E) 19:52:42 437.568
CUBESAT XI-V 23 May 19:48:56 19:51:04 13° 298° (WNW) 19:53:10 437.345
AAUSAT CUBESAT 2 23 May 19:49:58 19:52:24 15° 65° (ENE) 19:54:48 437.432
XW-2C 23 May 19:58:16 20:00:44 17° 267° (W) 20:03:15 145.795 - 145.815
XW-2A 23 May 19:59:08 20:02:23 51° 74° (ENE) 20:05:40 145.665 - 145.685
XW-2F 23 May 19:59:56 20:02:23 16° 267° (W) 20:04:52 145.980 - 146.000
NUDT-PHONESAT 23 May 20:09:56 20:12:09 15° 268° (W) 20:14:22 437.300
SEEDS 23 May 20:13:18 20:17:27 56° 74° (ENE) 20:21:38 437.485
KAITUO 1B 23 May 20:13:54 20:15:54 14° 269° (W) 20:17:53 145.475/437.950
CUTE-I 23 May 20:24:24 20:27:57 18° 268° (W) 20:31:30 437.470
Oscar 11 23 May 20:25:41 20:28:10 15° 64° (ENE) 20:30:40 .
HO-68 23 May 20:31:48 20:38:54 66° 257° (WSW) 20:46:05 435.675
AO-73 23 May 20:46:46 20:50:24 29° 69° (ENE) 20:54:06 145.935
CUTE 1.7 + AOD 2 23 May 20:53:29 20:57:20 32° 263° (W) 21:01:13 437.475
CUBEBUG 2 23 May 20:55:52 20:59:57 65° 258° (WSW) 21:04:09 437.445
ZACube-1 23 May 20:58:17 21:02:15 43° 72° (ENE) 21:06:19 437.345
UWE-3 23 May 21:13:17 21:17:25 70° 258° (WSW) 21:21:39 435.000/436.395/437.385
M-CUBED/EXP-1 PRIME 23 May 21:19:18 21:20:57 13° 98° (E) 21:22:34 437.505
Tancredo 1 23 May 21:20:37 21:22:34 16° 132° (SE) 21:24:32 437.200
ISS 23 May 21:20:58 21:21:44 11° 129° (SE) 21:22:30 437.550
AAUSAT CUBESAT 2 23 May 21:23:23 21:27:26 48° 261° (W) 21:31:30 437.432
STRAND 1 23 May 21:24:32 21:29:40 69° 287° (WNW) 21:34:46 437.568
PCSat 23 May 21:28:29 21:33:49 57° 303° (WNW) 21:39:11 145.827
EO-88 23 May 21:33:33 21:35:24 13° 66° (ENE) 21:37:15 145.990 - 145.960
SEEDS 23 May 21:51:42 21:53:29 12° 270° (W) 21:55:15 437.485
Oscar 11 23 May 21:59:39 22:03:52 52° 260° (W) 22:08:08 .
FO-29 23 May 22:01:51 22:04:09 12° 89° (E) 22:06:30 435.910
DELFI C3 23 May 22:12:32 22:16:28 59° 74° (ENE) 22:20:25 145.870
AO-73 23 May 22:23:17 22:26:37 23° 266° (W) 22:30:03 145.935
TIGRISAT 23 May 22:26:09 22:27:57 12° 90° (E) 22:29:47 435.000
PRISM 23 May 22:28:56 22:31:22 15° 93° (E) 22:33:49 437.425
ZACube-1 23 May 22:36:15 22:38:47 16° 269° (W) 22:41:20 437.345
M-CUBED/EXP-1 PRIME 23 May 22:52:35 22:55:34 30° 294° (WNW) 22:58:27 437.505
ISS 23 May 22:54:27 22:57:45 86° 323° (NW) 23:01:03 437.550
Tancredo 1 23 May 22:55:02 22:58:03 53° 327° (NNW) 23:01:05 437.200
UNISAT 6 23 May 22:55:06 22:59:02 27° 96° (E) 23:02:58 437.425
EO-88 23 May 23:05:16 23:08:43 40° 262° (W) 23:12:12 145.990 - 145.960
PCSat 23 May 23:16:32 23:18:26 12° 324° (NW) 23:20:19 145.827
ESTCUBE 1 23 May 23:21:00 23:24:39 24° 67° (ENE) 23:28:19 437.505/2401.250
SO-50 23 May 23:33:02 23:37:11 34° 115° (ESE) 23:41:18 436.795
FO-29 23 May 23:43:31 23:49:50 78° 103° (ESE) 23:56:59 435.910
DELFI C3 23 May 23:50:52 23:51:35 10° 270° (W) 23:52:19 145.870
LO-87 23 May 23:59:06 00:02:39 71° 258° (WSW) 00:06:12 145.935 - 145.965
AIST 2D 24 May 00:00:20 00:02:24 15° 92° (E) 00:04:27 435.315
TIGRISAT 24 May 00:00:29 00:05:02 67° 285° (WNW) 00:09:38 435.000
PRISM 24 May 00:03:00 00:06:50 41° 289° (WNW) 00:10:39 437.425
